Retour au catalogue

AVUM R/B

ActifVLEO
NORAD 49467·ROCKET BODY·🇫🇷 France

Lancé Nov 16, 2021 depuis Guiana Space Centre

Loading…

Prochains Passages (prochaines 24 heures)

TLE

FraisSource: Space-Track

Époque: Sep 14, 2026, 14:23 UTC

1 49467U 21105D   26257.59965814  .00006120  00000-0  16432-3 0  9996
2 49467  74.9191 261.4115 0076999  86.6770 274.3245 15.35050109267592

Suivez AVUM R/B en temps réel avec AllMySat

Download on the App Store